Location: Unspecified
(0.0000°N, 0.0000°E)
Time: 13:08:19
(UTC+00:00)

Envisat - Pass Details

Date: 05 October 2022
Orbit: 763 x 765 km, 98.2° (Epoch: 08 December)

Event Time Altitude Azimuth Distance (km) Brightness Sun altitude
Rises 04:35:39 0° 351° (N) 3,214 6.1 -18.2°
Reaches altitude 10° 04:38:14 10° 340° (NNW) 2,291 5.2 -17.5°
Maximum altitude 04:42:28 27° 282° (WNW) 1,423 3.8 -16.5°
Enters shadow 04:44:07 23° 252° (WSW) 1,585 4.1 -16.0°
Exits shadow 04:45:09 18° 238° (WSW) 1,825 4.5 -15.8°
Drops below altitude 10° 04:46:44 10° 225° (SW) 2,299 5.1 -15.4°
Sets 04:49:20 0° 213° (SSW) 3,227 6.0 -14.7°
